BEIDOU-2 G7 (C03)

Last updated on Wed Aug 26 2026 00:04:16 GMT+0000 (Coordinated Universal Time)

1 41586U 16037A 26237.56718361 -.00000356 00000+0 00000+0 0 9991 2 41586 1.8867 69.6423 0005723 357.9026 221.0147 1.00274989 7582
UTC large
Height (km)
Speed (km/s)
/
Latitude / Longitude
Inclination (degrees)
Orbital Period (minutes)
Azimuth
Elevation
Range (km)
Doppler Factor

Next 0 passes for location: London (51.5072 / 0.1276)

No passes found over London.
BEIDOU-2 G7 (C03)